This demonstration page uses our WeatherBlox Daily Observations layout. Learn more.

Left ArrowRight Arrow

Hourly Observations for December 3, 2016

Temp ( °F °C ) Dew Point ( °F °C ) Humidity (%) Winds ( mph kmh ) Pressure ( in mb ) Visibility ( mi km ) Precip ( " mm )
12:18 am 00:18 Cloudy 36 2 34 1 93 93 W 6 9 30.36 1028 10 16 N/A
12:38 am 00:38 Cloudy 36 2 34 1 93 93 W 3 6 30.33 1027 7 11 N/A
12:59 am 00:59 Cloudy 36 2 34 1 93 93 W 6 9 30.33 1027 7 11 N/A
1:18 am 01:18 Cloudy 36 2 34 1 93 93 W 5 7 30.33 1027 7 11 N/A
1:38 am 01:38 Cloudy 36 2 34 1 93 93 WNW 5 7 30.33 1027 7 11 N/A
1:59 am 01:59 Cloudy 36 2 34 1 93 93 WNW 3 6 30.33 1027 10 16 N/A
2:38 am 02:38 Cloudy 36 2 34 1 93 93 W 6 9 30.36 1028 7 11 N/A
2:59 am 02:59 Cloudy 36 2 34 1 93 93 WNW 5 7 30.36 1028 7 11 N/A
3:18 am 03:18 Cloudy 36 2 34 1 93 93 NW 3 6 30.36 1028 10 16 N/A
3:39 am 03:39 Cloudy 36 2 32 undefined 87 87 WNW 3 6 30.36 1028 10 16 N/A
3:59 am 03:59 Cloudy 36 2 34 1 93 93 W 6 9 30.36 1028 10 16 N/A
4:18 am 04:18 Cloudy 36 2 32 undefined 87 87 WNW 5 7 30.36 1028 10 16 N/A
4:39 am 04:39 Cloudy 36 2 32 undefined 87 87 NW 3 6 30.36 1028 10 16 N/A
4:59 am 04:59 Cloudy 36 2 30 -1 81 81 NW 5 7 30.36 1028 10 16 N/A
5:18 am 05:18 Cloudy 36 2 28 -2 75 75 NW 3 6 30.36 1028 10 16 N/A
5:39 am 05:39 Cloudy 36 2 30 -1 81 81 WNW 3 6 30.36 1028 10 16 N/A
5:59 am 05:59 Cloudy 36 2 30 -1 81 81 W 3 6 30.36 1028 10 16 N/A
6:18 am 06:18 Cloudy 36 2 30 -1 81 81 W 3 6 30.36 1028 10 16 N/A
6:39 am 06:39 Cloudy 36 2 32 undefined 87 87 WNW 5 7 30.36 1028 10 16 N/A
6:59 am 06:59 Cloudy 36 2 30 -1 81 81 W 5 7 30.36 1028 10 16 N/A
7:18 am 07:18 Cloudy 36 2 30 -1 81 81 WNW 5 7 30.36 1028 10 16 N/A
7:39 am 07:39 Cloudy 36 2 28 -2 75 75 WNW 5 7 30.36 1028 10 16 N/A
7:59 am 07:59 Cloudy 36 2 28 -2 75 75 W 3 6 30.36 1028 10 16 N/A
8:18 am 08:18 Cloudy 36 2 28 -2 75 75 WNW 5 7 30.39 1029 10 16 N/A
8:39 am 08:39 Cloudy 36 2 30 -1 81 81 W 5 7 30.39 1029 10 16 N/A
8:59 am 08:59 Cloudy 36 2 30 -1 81 81 WNW 5 7 30.39 1029 10 16 N/A
9:18 am 09:18 Cloudy 36 2 28 -2 75 75 WNW 5 7 30.39 1029 10 16 N/A
9:39 am 09:39 Cloudy 36 2 28 -2 75 75 NNW 6 9 30.36 1028 10 16 N/A
9:59 am 09:59 Cloudy 36 2 30 -1 81 81 N 8 13 30.36 1028 10 16 N/A
10:18 am 10:18 Cloudy 36 2 30 -1 81 81 NNW 6 9 30.36 1028 10 16 N/A
10:39 am 10:39 Cloudy 36 2 30 -1 81 81 NNE 5 7 30.36 1028 10 16 N/A
10:59 am 10:59 Cloudy 36 2 28 -2 75 75 N N/A 30.36 1028 10 16 N/A
11:18 am 11:18 Cloudy 37 3 28 -2 70 70 W 5 7 30.39 1029 10 16 N/A
11:39 am 11:39 Cloudy 37 3 28 -2 70 70 N N/A 30.36 1028 10 16 N/A
11:59 am 11:59 Cloudy 37 3 28 -2 70 70 WSW 5 7 30.36 1028 10 16 N/A
12:18 pm 12:18 Cloudy 37 3 28 -2 70 70 W 6 9 30.36 1028 10 16 N/A
12:39 pm 12:39 Cloudy 37 3 28 -2 70 70 WSW 7 11 30.36 1028 10 16 N/A
12:59 pm 12:59 Cloudy 37 3 28 -2 70 70 W 7 11 30.36 1028 10 16 N/A
1:18 pm 13:18 Cloudy 37 3 28 -2 70 70 WNW 8 13 30.36 1028 10 16 N/A
1:39 pm 13:39 Cloudy 37 3 28 -2 70 70 W 8 13 30.36 1028 10 16 N/A
1:59 pm 13:59 Cloudy 37 3 28 -2 70 70 W 12 19 30.36 1028 10 16 N/A
2:18 pm 14:18 Cloudy 37 3 28 -2 70 70 W 9 15 30.36 1028 10 16 N/A
2:39 pm 14:39 Cloudy 37 3 28 -2 70 70 W 12 19 30.36 1028 10 16 N/A
2:59 pm 14:59 Cloudy 37 3 27 -3 65 65 W 9 15 30.36 1028 10 16 N/A
3:18 pm 15:18 Cloudy 37 3 27 -3 65 65 WNW 6 9 30.36 1028 10 16 N/A
3:39 pm 15:39 Cloudy 37 3 28 -2 70 70 NW 7 11 30.36 1028 10 16 N/A
3:58 pm 15:58 Cloudy 37 3 27 -3 65 65 NW 6 9 30.33 1027 10 16 N/A
4:18 pm 16:18 Mostly Cloudy 37 3 28 -2 70 70 NW 8 13 30.36 1028 10 16 N/A
4:39 pm 16:39 Cloudy 36 2 28 -2 75 75 NNW 8 13 30.36 1028 10 16 N/A
4:58 pm 16:58 Cloudy 36 2 28 -2 75 75 NNW 5 7 30.33 1027 10 16 N/A
5:18 pm 17:18 Cloudy 36 2 28 -2 75 75 NNW 5 7 30.33 1027 10 16 N/A
5:39 pm 17:39 Cloudy 36 2 28 -2 75 75 N 6 9 30.33 1027 10 16 N/A
5:58 pm 17:58 Cloudy 36 2 28 -2 75 75 N 7 11 30.33 1027 10 16 N/A
6:19 pm 18:19 Cloudy 34 1 28 -2 81 81 N 5 7 30.33 1027 10 16 N/A
6:39 pm 18:39 Cloudy 34 1 28 -2 81 81 N 5 7 30.36 1028 10 16 N/A
6:58 pm 18:58 Cloudy 34 1 28 -2 81 81 N 5 7 30.33 1027 10 16 N/A
7:19 pm 19:19 Cloudy 34 1 28 -2 81 81 NNE 6 9 30.33 1027 10 16 N/A
7:39 pm 19:39 Partly Cloudy 32 undefined 28 -2 87 87 NNE 6 9 30.33 1027 10 16 N/A
7:58 pm 19:58 Clear 32 undefined 28 -2 87 87 NNE 3 6 30.33 1027 10 16 N/A
8:19 pm 20:19 Clear 32 undefined 28 -2 87 87 NNE 3 6 30.33 1027 10 16 N/A
8:39 pm 20:39 Clear 30 -1 28 -2 93 93 N N/A 30.33 1027 10 16 N/A
8:58 pm 20:58 Clear 32 undefined 28 -2 87 87 N N/A 30.33 1027 10 16 N/A
9:19 pm 21:19 Clear 32 undefined 28 -2 87 87 N N/A 30.33 1027 10 16 N/A
9:38 pm 21:38 Clear 30 -1 28 -2 93 93 N N/A 30.33 1027 10 16 N/A
9:58 pm 21:58 Clear 30 -1 28 -2 93 93 N N/A 30.33 1027 10 16 N/A
10:19 pm 22:19 Clear 30 -1 28 -2 93 93 N N/A 30.30 1026 10 16 N/A
10:38 pm 22:38 Clear 30 -1 28 -2 93 93 N N/A 30.30 1026 10 16 N/A
10:58 pm 22:58 Clear 30 -1 28 -2 93 93 N N/A 30.30 1026 10 16 N/A
11:19 pm 23:19 Clear 30 -1 27 -3 86 86 N N/A 30.30 1026 10 16 N/A
11:58 pm 23:58 Clear 30 -1 28 -2 93 93 N N/A 30.30 1026 10 16 N/A

Powered by AerisWeather